Weather in Anatolyevka

Russia / Orenburg Oblast     52°08′38″N   55°23′16″E
temp.,
°C
wind,
m/s
gust,
m/s
humid.,
%
clouds,
%
prec.,
mm/h
press.,
hPa
HPBL,
m
28 february, sun
sun2823:000s589898 1.5 1002422
02:000sw4898100 1.2 1000389
05:000ssw4798100 1.5 999403
08:00−1sw4898100 1.1 999388
11:000sw5798100 2.2 999493
14:00−1wsw579998 0.6 1000435
17:00−6w479498 1.0 1003330
20:00−8w489598 0.3 1006269
1 march, mon
mon123:00−10w379597 0.6 1009190
02:00−13w349690 0.2 1012105
05:00−13w349693 0.3 1014104
08:00−14w239699 0.3 101659
11:00−13wsw349495 0.4 1017269
14:00−11w349099 0.1 1018408
17:00−11w349299 0.3 1019409
20:00−14w369692 0.1 1020145
2 march, tue
tue223:00−16wnw349584 0.2 102155
02:00−20w239774 0.0 102125
05:00−22w229878 0.1 102120
08:00−24sw229980 0.0 102120
11:00−20ssw349773 0.0 1020171
14:00−17s589688 0.0 1018331
17:00−14s6109494 0.1 1016451
20:00−13s61294100 0.1 1014500
3 march, wed
wed323:00−10s61295100 0.7 1011488
02:00−5s71396100 1.3 1008655
05:00−3ssw71396100 2.9 1005802
08:00−3ssw71396100 1.3 1003728
11:00−2ssw61197100 2.6 1001695
14:00−1sw6897100 1.4 1001581
17:00−1w5895100 2.6 1001616
20:00−4w51194100 0.5 1002524
4 march, thu
thu423:00−6wnw4993100 0.6 1005268
02:00−8wnw4795100 0.0 1005153
05:00−7wnw3895100 0.3 1007257
08:00−9wnw3795100 0.2 1008193
11:00−8nw5109195 0.3 1010373
14:00−8nw58916 0.0 1012398
17:00−9nw489148 0.0 1014405
20:00−13wnw349560 0.0 101650